Tracking 29892 objects as of 21-Nov-2024
HD Live streaming from Space Station
objects crossing your sky now

ARIANE 44LP DEB

Track ARIANE 44LP DEB now!
10-day predictions


NORAD ID: 27048
Int'l Code: 1989-062L
Perigee: 508.2 km
Apogee: 20,660.5 km
Inclination: 8.3 °
Period: 366.2 minutes
Semi major axis: 16955 km
RCS: 1.3259 m2 (large)
Launch date: August 8, 1989
Source: France (FR)
Launch site: FRENCH GUIANA (FRGUI)

Note: This is SATELLITE DEBRIS
Your satellite tracking list
Your tracking list is empty




NASA's NSSDC Master Catalog

Two Line Element Set (TLE):
1 27048U 89062L   24325.70379790  .00003019  00000-0  83116-2 0  9998
2 27048   8.2502 179.9617 5942773 178.9258 183.4375  3.93226771283922
Source of the keplerian elements: AFSPC